This demonstration page uses our WeatherBlox Daily Observations layout. Learn more.

Left ArrowRight Arrow

Hourly Observations for August 13, 2022

Temp ( °F °C ) Dew Point ( °F °C ) Humidity (%) Winds ( mph kmh ) Pressure ( in mb ) Visibility ( mi km ) Precip ( " mm )
12:53 am 00:53 Clear 74 23.3 36 2.2 25 25 N 3 6 29.93 1014 10 16 0.00 0.00
1:53 am 01:53 Clear 74 23.3 34 1.1 23 23 N 5 7 29.93 1014 10 16 0.00 0.00
2:53 am 02:53 Clear 70 21.1 36 2.2 29 29 NNW 3 6 29.94 1014 10 16 0.00 0.00
3:53 am 03:53 Clear 73 22.8 35 1.7 25 25 N 6 9 29.95 1014 10 16 0.00 0.00
4:53 am 04:53 Clear 68 20 37 2.8 32 32 N 6 9 29.95 1014 10 16 0.00 0.00
5:53 am 05:53 Clear 67 19.4 39 3.9 36 36 N 5 7 29.96 1015 10 16 0.00 0.00
6:53 am 06:53 Sunny 65 18.3 40 4.4 40 40 N 3 6 29.97 1015 10 16 0.00 0.00
7:53 am 07:53 Sunny 74 23.3 41 5 30 30 NNW 3 6 29.98 1015 10 16 0.00 0.00
8:53 am 08:53 Sunny 80 26.7 43 6.1 27 27 VRB 3 6 29.98 1015 10 16 0.00 0.00
9:53 am 09:53 Sunny 86 30 41 5 21 21 N 5 7 29.97 1015 10 16 0.00 0.00
10:53 am 10:53 Sunny 91 32.8 40 4.4 17 17 N 7 11 29.96 1014 10 16 0.00 0.00
11:53 am 11:53 Sunny 94 34.4 40 4.4 15 15 NW 6 9 29.94 1014 10 16 0.00 0.00
12:53 pm 12:53 Sunny 96 35.6 40 4.4 14 14 Calm 29.92 1013 10 16 0.00 0.00
1:53 pm 13:53 Sunny 97 36.1 36 2.2 12 12 VRB 6 9 29.91 1013 10 16 0.00 0.00
2:53 pm 14:53 Sunny 98 36.7 33 0.6 10 10 Calm 29.89 1012 10 16 0.00 0.00
3:53 pm 15:53 Sunny 100 37.8 24 -4.4 7 7 undefined N/A 29.87 1012 10 16 0.00 0.00
4:53 pm 16:53 Sunny 101 38.3 27 -2.8 7 7 undefined N/A 29.86 1011 10 16 0.00 0.00
5:53 pm 17:53 Sunny 100 37.8 15 -9.4 5 5 SSE 7 11 29.85 1011 10 16 0.00 0.00
6:53 pm 18:53 Sunny 99 37.2 14 -10 5 5 SSE 12 19 29.83 1010 10 16 0.00 0.00
7:53 pm 19:53 Sunny 93 33.9 22 -5.6 8 8 SE 7 11 29.84 1011 10 16 0.00 0.00
8:53 pm 20:53 Clear 87 30.6 32 0 14 14 S 5 7 29.86 1011 10 16 0.00 0.00
9:53 pm 21:53 Clear 88 31.1 37 2.8 17 17 S 3 6 29.88 1012 10 16 0.00 0.00
10:32 pm 22:32 Mostly Cloudy 82 27.8 37 2.8 20 20 Calm 29.89 1012 10 16 0.00 0.00
10:39 pm 22:39 Mostly Cloudy 82 27.8 38 3.3 21 21 SSE 6 9 29.89 1012 10 16 0.00 0.00
10:53 pm 22:53 Cloudy 81 27.2 39 3.9 22 22 SSE 5 7 29.89 1012 10 16 0.00 0.00
11:53 pm 23:53 Cloudy 79 26.1 35 1.7 20 20 NE 3 6 29.91 1013 10 16 0.00 0.00

Powered by AerisWeather